This is the latest recevied weather packets stored in our database for station/object EA4HRG-10. If no packets are shown the sender has not sent any weather packets the latest 10 day(s).
| Time | Temp. | Humidity | Pressure | Rain* | Wind** | Luminosity | Snow |
|---|---|---|---|---|---|---|---|
| 1788125138 | 17.78° C | 39% | 1017.8 hPa | - | - | - | - |
| 1788124238 | 18.33° C | 39% | 1017.6 hPa | - | - | - | - |
| 1788123337 | 18.89° C | 38% | 1017.3 hPa | - | - | - | - |
| 1788122447 | 19.44° C | 37% | 1016.9 hPa | - | - | - | - |
| 1788121577 | 20.56° C | 35% | 1016.5 hPa | - | - | - | - |
| 1788121537 | 20.56° C | 35% | 1016.5 hPa | - | - | - | - |
| 1788120637 | 21.11° C | 33% | 1016.1 hPa | - | - | - | - |
| 1788119737 | 21.67° C | 32% | 1015.6 hPa | - | - | - | - |
| 1788118837 | 22.78° C | 30% | 1015 hPa | - | - | - | - |
| 1788117937 | 23.89° C | 29% | 1014.5 hPa | - | - | - | - |
| 1788117037 | 25° C | 27% | 1013.6 hPa | - | - | - | - |
| 1788116137 | 26.67° C | 24% | 1013 hPa | - | - | - | - |
| 1788115237 | 28.89° C | 22% | 1012.1 hPa | - | - | - | - |
| 1788114337 | 31.11° C | 20% | 1011.1 hPa | - | - | - | - |
| 1788113437 | 32.78° C | 17% | 1010.5 hPa | - | - | - | - |
| 1788112538 | 33.33° C | 16% | 1010.2 hPa | - | - | - | - |
| 1788111637 | 34.44° C | 16% | 1009.9 hPa | - | - | - | - |
| 1788110737 | 34.44° C | 15% | 1010.1 hPa | - | - | - | - |
| 1788109837 | 35.56° C | 15% | 1009.6 hPa | - | - | - | - |
| 1788108937 | 34.44° C | 15% | 1009.9 hPa | - | - | - | - |
| 1788108037 | 36.11° C | 14% | 1009.4 hPa | - | - | - | - |
| 1788107194 | 36.67° C | 14% | 1009.3 hPa | - | - | - | - |
| 1788107137 | 36.67° C | 14% | 1009.3 hPa | - | - | - | - |
| 1788106237 | 36.67° C | 14% | 1009.2 hPa | - | - | - | - |
| 1788105337 | 36.11° C | 14% | 1009.4 hPa | - | - | - | - |
* Rain since midnight (hover to see other rain measurements)
** Current wind speed in m/s (hover to see current wind gust speed)